Flag for Haiti Weather past 2 weeks in Port-au-Prince, Haiti

Now
77 °F

Passing clouds.


Feels Like: 78 °F
Forecast: 74 / 92 °F
Wind: 7 mph from Southeast

Location: Santiago

Current Time: Sep 2, 2015 at 3:35:48 AM

Latest Report: Sep 2, 2015 at 2:00 AM


Visibility: N/A

Pressure: 30.04 "Hg

Humidity: 94%

Dew point: 75 °F

Location of Port-au-PrinceLocation

Historic Weather in Port-au-Prince — Graph

°F

Port-au-Prince temperature yesterday

Maximum temperature yesterday: 93 °F (at 2:00 PM)
Minimum temperature yesterday: 75 °F (at 5:00 AM)
Average temperature yesterday: 82 °F

Past Weeks' High & Low Weather Summary

 TemperatureHumidityPressure
High97 °F (Aug 20, 2:00 PM)100% (Aug 29, 12:00 AM)30.04 "Hg (Aug 29, 12:00 AM)
Low73 °F (Aug 18, 6:00 AM)34% (Aug 21, 3:00 PM)29.83 "Hg (Aug 22, 4:00 PM)
Average83 °F73%29.96 "Hg
* Reported Aug 18 2:00 AM — Sep 2 2:00 AM, Port-au-Prince, Weather by CustomWeather, © 2015

Note: Actual official high and low records may vary slightly from our data, if they occured in-between our weather recording intervals... More about our weather records

Advertising

Port-au-Prince weather history for previous 24 hours

 ConditionsComfort  
Time TempWeatherWind HumidityBarometerVisibility
2:00 AM
Wed, Sep 2
77 °FPassing clouds.7 mph94%30.04 "HgN/A
1:00 AM79 °FPassing clouds.6 mph89%30.04 "HgN/A
11:00 PM
Tue, Sep 1
79 °FPassing clouds.10 mph89%30.04 "HgN/A
10:00 PM81 °FPassing clouds.7 mph84%30.04 "HgN/A
9:00 PM81 °FPassing clouds.9 mph79%30.04 "HgN/A
8:00 PM82 °FPassing clouds.12 mph74%30.01 "HgN/A
7:00 PM84 °FPassing clouds.12 mph70%29.98 "HgN/A
5:00 PM86 °FScattered clouds.9 mph70%29.95 "HgN/A
4:00 PM86 °FBroken clouds.9 mph66%29.95 "HgN/A
3:00 PM84 °FSprinkles. Scattered clouds.14 mph70%29.98 "Hg4 mi
2:00 PM93 °FScattered clouds.16 mph49%29.98 "HgN/A
1:00 PM91 °FScattered clouds.9 mph52%30.01 "HgN/A
12:00 PM91 °FScattered clouds.17 mph52%30.04 "HgN/A
11:00 AM88 °FScattered clouds.14 mph62%30.04 "HgN/A
10:00 AM84 °FScattered clouds.14 mph70%30.04 "HgN/A
9:00 AM82 °FScattered clouds.8 mph74%30.04 "HgN/A
8:00 AM77 °FScattered clouds.5 mph94%30.01 "HgN/A
7:00 AM77 °FScattered clouds.6 mph94%30.01 "HgN/A
6:00 AM77 °FPassing clouds.6 mph94%30.01 "HgN/A
5:00 AM75 °FPassing clouds.6 mph100%30.01 "HgN/A
4:00 AM77 °FPassing clouds.7 mph94%30.01 "HgN/A
3:00 AM79 °FPassing clouds.8 mph94%30.01 "HgN/A
Weather by CustomWeather, © 2015

See weather overviewHow to use our weather pages